FW7194 Weather Reports


Display with metric or nautical units.
time (UTC)temp
F
wind
direction
speed
MPH
gust
MPH
rain 1hr
in
rain 24hr
in
rain mn
in
humidity
%
barometer
mb
20260902171947 90 202 1.0 2.0 0.00 0.00 0.00 71 1018.4
20260902171443 91 218 2.0 6.0 0.00 0.00 0.00 72 1018.3
20260902170938 91 193 3.0 7.0 0.00 0.00 0.00 71 1018.5
20260902170433 91 176 5.0 8.0 0.00 0.00 0.00 71 1018.6
20260902165929 91 149 3.0 7.0 0.00 0.00 0.00 71 1018.4
20260902165428 91 160 2.0 8.0 0.00 0.00 0.00 70 1018.7
20260902164923 91 205 4.0 8.0 0.00 0.00 0.00 69 1018.5
20260902164418 91 188 4.0 5.0 0.00 0.00 0.00 69 1018.6
20260902163917 91 170 1.0 2.0 0.00 0.00 0.00 68 1018.6
20260902163412 91 121 3.0 3.0 0.00 0.00 0.00 68 1018.5
20260902162909 91 143 1.0 2.0 0.00 0.00 0.00 68 1018.7
20260902162405 91 233 1.0 2.0 0.00 0.00 0.00 69 1018.7
20260902161900 91 196 4.0 5.0 0.00 0.00 0.00 69 1018.9
20260902161355 91 192 0.0 2.0 0.00 0.00 0.00 69 1018.8
20260902160851 91 219 2.0 3.0 0.00 0.00 0.00 69 1018.8
20260902160347 90 161 1.0 3.0 0.00 0.00 0.00 69 1018.7
20260902155844 90 145 1.0 2.0 0.00 0.00 0.00 70 1018.9
20260902155343 90 207 1.0 2.0 0.00 0.00 0.00 70 1019.0
20260902154839 90 166 0.0 2.0 0.00 0.00 0.00 71 1019.1
20260902154335 90 155 2.0 3.0 0.00 0.00 0.00 71 1019.0
20260902153833 90 194 2.0 3.0 0.00 0.00 0.00 72 1019.1
20260902153332 89 183 2.0 3.0 0.00 0.00 0.00 73 1019.0
20260902152829 89 151 2.0 2.0 0.00 0.00 0.00 74 1018.9
20260902152324 88 181 2.0 2.0 0.00 0.00 0.00 74 1019.2
20260902151819 88 171 0.0 1.0 0.00 0.00 0.00 76 1019.1
20260902151315 88 148 0.0 2.0 0.00 0.00 0.00 76 1019.1
20260902150809 88 163 0.0 2.0 0.00 0.00 0.00 77 1019.0
20260902150306 88 193 2.0 3.0 0.00 0.00 0.00 77 1019.2
20260902145805 87 159 1.0 1.0 0.00 0.00 0.00 78 1019.2
20260902145300 87 162 0.0 1.0 0.00 0.00 0.00 78 1018.9
20260902144756 87 164 0.0 1.0 0.00 0.00 0.00 79 1019.2
20260902144251 87 174 1.0 2.0 0.00 0.00 0.00 80 1019.2
20260902143746 87 121 1.0 1.0 0.00 0.00 0.00 80 1019.0
20260902143241 86 135 0.0 5.0 0.00 0.00 0.00 81 1018.7
20260902142736 86 50 1.0 3.0 0.00 0.00 0.00 82 1019.0
20260902142232 86 189 0.0 3.0 0.00 0.00 0.00 84 1019.1
20260902141727 86 73 3.0 5.0 0.00 0.00 0.00 87 1019.2
20260902141223 85 162 0.0 2.0 0.00 0.00 0.00 87 1019.2
20260902140712 85 209 1.0 2.0 0.00 0.00 0.00 89 1019.1
20260902140207 84 126 0.0 2.0 0.00 0.00 0.00 90 1018.9
20260902135706 84 153 0.0 1.0 0.00 0.00 0.00 91 1019.1
20260902135202 83 148 0.0 2.0 0.00 0.00 0.00 92 1019.0
20260902134656 84 170 0.0 1.0 0.00 0.00 0.00 93 1019.0
20260902134156 84 141 0.0 1.0 0.00 0.00 0.00 93 1018.9
20260902133652 83 145 0.0 2.0 0.00 0.00 0.00 94 1018.9
20260902133151 83 138 0.0 0.0 0.00 0.00 0.00 95 1019.1
20260902132646 82 135 0.0 3.0 0.00 0.00 0.00 96 1018.8
20260902132142 82 138 0.0 0.0 0.00 0.00 0.00 96 1019.0
20260902131637 82 136 0.0 1.0 0.00 0.00 0.00 97 1019.1
20260902131133 81 135 0.0 0.0 0.00 0.00 0.00 97 1018.8
20260902130629 81 128 0.0 1.0 0.00 0.00 0.00 98 1018.9
20260902130124 80 123 0.0 0.0 0.00 0.00 0.00 98 1018.8
20260902125619 80 123 0.0 0.0 0.00 0.00 0.00 98 1018.9
20260902125114 79 122 0.0 0.0 0.00 0.00 0.00 98 1018.8
20260902124612 79 121 0.0 0.0 0.00 0.00 0.00 98 1019.0
20260902124111 78 106 0.0 0.0 0.00 0.00 0.00 97 1018.8
20260902123608 78 120 0.0 0.0 0.00 0.00 0.00 96 1018.9
20260902123102 78 120 0.0 1.0 0.00 0.00 0.00 96 1018.8
20260902122601 77 130 0.0 0.0 0.00 0.00 0.00 96 1018.8
20260902122052 77 162 0.0 0.0 0.00 0.00 0.00 96 1018.9
20260902121551 77 117 0.0 0.0 0.00 0.00 0.00 95 1018.9
20260902121046 77 117 0.0 0.0 0.00 0.00 0.00 95 1018.8
20260902120543 76 115 0.0 0.0 0.00 0.00 0.00 95 1018.8
20260902120038 76 114 0.0 0.0 0.00 0.00 0.00 95 1019.0
20260902115538 76 110 0.0 0.0 0.00 0.00 0.00 95 1019.0
20260902115035 76 99 0.0 0.0 0.00 0.00 0.00 95 1019.0
20260902114531 76 98 0.0 0.0 0.00 0.00 0.00 95 1019.0
20260902114031 76 119 0.0 0.0 0.00 0.00 0.00 95 1018.9
20260902113526 75 112 0.0 0.0 0.00 0.00 0.00 95 1018.7
20260902113021 75 125 0.0 0.0 0.00 0.00 0.00 95 1018.8
20260902112517 75 15 0.0 1.0 0.00 0.00 0.00 95 1018.7
20260902112013 75 216 0.0 0.0 0.00 0.00 0.00 95 1018.6
20260902111509 75 216 0.0 0.0 0.00 0.00 0.00 95 1018.6
20260902111005 75 213 0.0 0.0 0.00 0.00 0.00 95 1018.6
20260902110501 75 218 0.0 0.0 0.00 0.00 0.00 95 1018.5
20260902105955 75 221 0.0 0.0 0.00 0.00 0.00 95 1018.3
20260902105451 75 230 0.0 0.0 0.00 0.00 0.00 95 1018.4
20260902104945 75 232 0.0 0.0 0.00 0.00 0.00 95 1018.3
20260902104441 75 239 0.0 0.0 0.00 0.00 0.00 95 1018.4
20260902103940 75 233 0.0 0.0 0.00 0.00 0.00 95 1018.3
20260902103436 75 232 0.0 0.0 0.00 0.00 0.00 95 1018.4
20260902102931 75 225 0.0 0.0 0.00 0.00 0.00 95 1018.4
20260902102428 75 225 0.0 0.0 0.00 0.00 0.00 95 1018.3
20260902101924 75 225 0.0 0.0 0.00 0.00 0.00 95 1018.2
20260902101424 75 224 0.0 0.0 0.00 0.00 0.00 94 1018.2
20260902100918 75 224 0.0 0.0 0.00 0.00 0.00 94 1018.2
20260902100418 75 224 0.0 0.0 0.00 0.00 0.00 94 1018.2
20260902095913 75 223 0.0 0.0 0.00 0.00 0.00 94 1017.8
20260902095407 75 225 0.0 0.0 0.00 0.00 0.00 94 1018.1
20260902094906 75 227 0.0 0.0 0.00 0.00 0.00 94 1018.0
20260902094403 75 228 0.0 0.0 0.00 0.00 0.00 94 1018.0
20260902093903 75 221 0.0 0.0 0.00 0.00 0.00 94 1018.0
20260902093358 75 220 0.0 0.0 0.00 0.00 0.00 94 1018.0
20260902092856 75 216 0.0 0.0 0.00 0.00 0.00 94 1018.0
20260902092353 75 211 0.0 0.0 0.00 0.00 0.00 94 1018.0
20260902091853 75 222 0.0 0.0 0.00 0.00 0.00 94 1018.2
20260902091348 75 227 0.0 0.0 0.00 0.00 0.00 94 1018.0
20260902090845 75 225 0.0 0.0 0.00 0.00 0.00 94 1018.0
20260902090344 75 222 0.0 0.0 0.00 0.00 0.00 94 1018.0
20260902085843 75 222 0.0 0.0 0.00 0.00 0.00 94 1018.0
20260902085339 75 226 0.0 0.0 0.00 0.00 0.00 94 1018.0
20260902084834 75 226 0.0 0.0 0.00 0.00 0.00 94 1018.1
20260902084331 75 233 0.0 0.0 0.00 0.00 0.00 94 1018.2
20260902083826 75 228 0.0 0.0 0.00 0.00 0.00 94 1018.0
20260902083326 75 216 0.0 0.0 0.00 0.00 0.00 94 1018.1
20260902082821 75 216 0.0 0.0 0.00 0.00 0.00 94 1018.0
20260902082317 75 215 0.0 0.0 0.00 0.00 0.00 94 1017.9
20260902081813 75 215 0.0 0.0 0.00 0.00 0.00 94 1017.9
20260902081309 75 216 0.0 0.0 0.00 0.00 0.00 94 1017.9
20260902080803 75 216 0.0 0.0 0.00 0.00 0.00 94 1017.8
20260902080301 75 216 0.0 0.0 0.00 0.00 0.00 94 1018.0
20260902075759 75 214 0.0 0.0 0.00 0.00 0.00 94 1018.0
20260902075255 76 216 0.0 0.0 0.00 0.00 0.00 94 1017.8
20260902074750 76 217 0.0 0.0 0.00 0.00 0.00 94 1017.9
20260902074246 76 217 0.0 0.0 0.00 0.00 0.00 93 1017.8
20260902073740 76 224 0.0 0.0 0.00 0.00 0.00 93 1017.8
20260902073236 76 224 0.0 0.0 0.00 0.00 0.00 93 1017.7
20260902072732 76 224 0.0 0.0 0.00 0.00 0.00 93 1017.6
20260902072228 76 224 0.0 0.0 0.00 0.00 0.00 93 1017.7
20260902071724 76 224 0.0 0.0 0.00 0.00 0.00 93 1017.7
20260902071219 76 225 0.0 0.0 0.00 0.00 0.00 93 1017.6
20260902070715 76 217 0.0 0.0 0.00 0.00 0.00 93 1017.7
20260902070214 76 218 0.0 0.0 0.00 0.00 0.00 93 1017.5
20260902065714 76 219 0.0 0.0 0.00 0.00 0.00 93 1017.7
20260902065210 76 218 0.0 0.0 0.00 0.00 0.00 93 1017.7
20260902064705 76 218 0.0 0.0 0.00 0.00 0.00 93 1017.6
20260902064200 76 219 0.0 0.0 0.00 0.00 0.00 93 1017.6
20260902063655 76 218 0.0 0.0 0.00 0.00 0.00 93 1017.7
20260902063150 76 218 0.0 0.0 0.00 0.00 0.00 93 1017.7
20260902062649 76 219 0.0 0.0 0.00 0.00 0.00 93 1017.5
20260902062144 76 219 0.0 0.0 0.00 0.00 0.00 93 1017.6
20260902061643 76 222 0.0 0.0 0.00 0.00 0.00 93 1017.6
20260902061139 76 219 0.0 0.0 0.00 0.00 0.00 93 1017.6
20260902060636 76 220 0.0 0.0 0.00 0.00 0.00 93 1017.6
20260902060132 76 218 0.0 0.0 0.00 0.00 0.00 93 1017.7
20260902055627 76 212 0.0 0.0 0.00 0.00 0.00 93 1017.6
20260902055123 76 212 0.0 0.0 0.00 0.00 0.00 92 1017.8
20260902054617 76 212 0.0 0.0 0.00 0.00 0.00 92 1017.9
20260902054114 76 213 0.0 0.0 0.00 0.00 0.00 92 1017.7
20260902053608 77 224 0.0 0.0 0.00 0.00 0.00 92 1017.7
20260902053103 77 224 0.0 0.0 0.00 0.00 0.00 92 1017.8
20260902052603 77 219 0.0 0.0 0.00 0.00 0.00 92 1017.8
20260902052059 77 210 0.0 0.0 0.00 0.00 0.00 92 1017.7
20260902051558 77 210 0.0 0.0 0.00 0.00 0.00 92 1017.8
20260902051057 77 226 0.0 0.0 0.00 0.00 0.00 92 1017.7
20260902050546 77 222 0.0 0.0 0.00 0.00 0.00 92 1017.8
20260902050042 77 220 0.0 0.0 0.00 0.00 0.00 92 1017.9
20260902045537 77 220 0.0 0.0 0.00 0.00 0.00 92 1017.7
20260902045033 77 220 0.0 0.0 0.00 0.00 0.00 92 1018.0
20260902044533 77 219 0.0 0.0 0.00 0.00 0.00 92 1018.0
20260902044029 77 219 0.0 0.0 0.00 0.00 0.00 92 1018.1
20260902043524 77 220 0.0 0.0 0.00 0.00 0.00 91 1017.8
20260902043019 77 216 0.0 0.0 0.00 0.00 0.00 91 1017.9
20260902042518 77 210 0.0 0.0 0.00 0.00 0.00 91 1017.9
20260902042014 77 210 0.0 0.0 0.00 0.00 0.00 91 1017.9
20260902041508 77 211 0.0 0.0 0.00 0.00 0.00 91 1017.6
20260902041002 77 223 0.0 0.0 0.00 0.00 0.00 91 1017.9
20260902040457 77 223 0.0 0.0 0.00 0.00 0.00 91 1017.8
20260902035956 77 222 0.0 0.0 0.00 0.00 0.00 91 1018.1
20260902035451 77 222 0.0 0.0 0.00 0.00 0.00 91 1018.0
20260902034951 77 222 0.0 0.0 0.00 0.00 0.00 91 1017.9
20260902034450 77 219 0.0 0.0 0.00 0.00 0.00 91 1017.8
20260902033945 77 219 0.0 0.0 0.00 0.00 0.00 90 1017.9
20260902033444 77 219 0.0 0.0 0.00 0.00 0.00 90 1018.1
20260902032943 78 218 0.0 0.0 0.00 0.00 0.00 90 1018.2
20260902032438 78 219 0.0 0.0 0.00 0.00 0.00 90 1018.2
20260902031933 78 226 0.0 0.0 0.00 0.00 0.00 90 1018.1
20260902031428 78 226 0.0 0.0 0.00 0.00 0.00 90 1018.2
20260902030924 78 224 0.0 0.0 0.00 0.00 0.00 90 1018.2
20260902030419 78 223 0.0 0.0 0.00 0.00 0.00 90 1018.3
20260902025917 78 222 0.0 0.0 0.00 0.00 0.00 90 1018.2
20260902025413 78 224 0.0 0.0 0.00 0.00 0.00 89 1018.1
20260902024908 78 230 0.0 0.0 0.00 0.00 0.00 89 1018.2
20260902024403 78 230 0.0 0.0 0.00 0.00 0.00 89 1018.2
20260902023858 78 230 0.0 0.0 0.00 0.00 0.00 89 1018.1
20260902023354 78 231 0.0 0.0 0.00 0.00 0.00 89 1018.2
20260902022853 78 227 0.0 0.0 0.00 0.00 0.00 89 1018.2
20260902022348 78 225 0.0 0.0 0.00 0.00 0.00 89 1018.2
20260902021844 78 224 0.0 0.0 0.00 0.00 0.00 89 1018.1
20260902021338 78 225 0.0 0.0 0.00 0.00 0.00 89 1018.1
20260902020834 79 227 0.0 0.0 0.00 0.00 0.00 88 1018.0
20260902020331 79 225 0.0 0.0 0.00 0.00 0.00 88 1018.1
20260902015826 79 226 0.0 0.0 0.00 0.00 0.00 88 1018.0
20260902015322 79 227 0.0 0.0 0.00 0.00 0.00 88 1017.8
20260902014817 79 227 0.0 0.0 0.00 0.00 0.00 88 1017.9
20260902014314 79 219 0.0 0.0 0.00 0.00 0.00 88 1017.7
20260902013812 79 220 0.0 0.0 0.00 0.00 0.00 87 1017.8
20260902013308 79 220 0.0 0.0 0.00 0.00 0.00 87 1017.6
20260902012803 79 219 0.0 0.0 0.00 0.00 0.00 87 1017.7
20260902012259 79 220 0.0 0.0 0.00 0.00 0.00 87 1017.6
20260902011754 79 219 0.0 0.0 0.00 0.00 0.00 87 1017.6
20260902011254 80 223 0.0 0.0 0.00 0.00 0.00 87 1017.6
20260902010753 80 216 0.0 0.0 0.00 0.00 0.00 86 1017.6
20260902010249 80 220 0.0 0.0 0.00 0.00 0.00 86 1017.7
20260902005747 80 211 0.0 0.0 0.00 0.00 0.00 86 1017.5
20260902005243 80 207 0.0 0.0 0.00 0.00 0.00 86 1017.6
20260902004742 80 207 0.0 0.0 0.00 0.00 0.00 85 1017.4
20260902004238 80 215 0.0 0.0 0.00 0.00 0.00 85 1017.3
20260902003727 81 216 0.0 0.0 0.00 0.00 0.00 85 1017.3
20260902003223 81 216 0.0 0.0 0.00 0.00 0.00 85 1017.3
20260902002719 81 204 0.0 0.0 0.00 0.00 0.00 85 1017.4
20260902002218 81 205 0.0 0.0 0.00 0.00 0.00 84 1017.4
20260902001714 81 209 0.0 0.0 0.00 0.00 0.00 84 1017.5
20260902001213 81 241 1.0 2.0 0.00 0.00 0.00 84 1017.5
20260902000708 82 168 0.0 2.0 0.00 0.00 0.00 84 1017.4
20260902000204 82 184 0.0 1.0 0.00 0.00 0.00 83 1017.5
20260901235703 82 139 0.0 1.0 0.00 0.00 0.00 83 1017.4
20260901235158 82 147 2.0 2.0 0.00 0.00 0.00 83 1017.4
20260901234658 82 192 0.0 0.0 0.00 0.00 0.00 83 1017.7
20260901234153 82 165 1.0 1.0 0.00 0.00 0.00 83 1017.6
20260901233647 82 206 0.0 2.0 0.00 0.00 0.00 82 1017.5
20260901233143 82 163 0.0 0.0 0.00 0.00 0.00 82 1017.5
20260901232638 82 197 0.0 1.0 0.00 0.00 0.00 82 1017.5
20260901232133 83 152 1.0 3.0 0.00 0.00 0.00 82 1017.6
20260901231630 83 192 1.0 6.0 0.00 0.00 0.00 81 1017.4
20260901231126 83 113 1.0 6.0 0.00 0.00 0.00 81 1017.6
20260901230622 83 164 1.0 5.0 0.00 0.00 0.00 81 1017.3
20260901230121 83 153 4.0 6.0 0.00 0.00 0.00 81 1017.3
20260901225616 83 200 1.0 2.0 0.00 0.00 0.00 80 1017.4
20260901225116 83 157 3.0 3.0 0.00 0.00 0.00 80 1017.4
20260901224612 84 215 1.0 6.0 0.00 0.00 0.00 80 1017.5
20260901224108 84 199 0.0 3.0 0.00 0.00 0.00 80 1017.6
20260901223603 84 184 3.0 5.0 0.00 0.00 0.00 80 1017.4
20260901223059 84 187 1.0 5.0 0.00 0.00 0.00 80 1017.7
20260901222554 84 59 1.0 6.0 0.00 0.00 0.00 79 1017.4
20260901222050 84 178 2.0 6.0 0.00 0.00 0.00 79 1017.5
20260901221546 84 118 3.0 6.0 0.00 0.00 0.00 79 1017.6
20260901221041 84 146 1.0 5.0 0.00 0.00 0.00 79 1017.5
20260901220535 84 167 2.0 3.0 0.00 0.00 0.00 79 1017.7
20260901220034 84 98 4.0 8.0 0.00 0.00 0.00 79 1017.6
20260901215533 84 159 4.0 7.0 0.00 0.00 0.00 79 1017.6
20260901215032 84 95 2.0 5.0 0.00 0.00 0.00 78 1017.5
20260901214531 85 108 5.0 8.0 0.00 0.00 0.00 78 1017.6
20260901214025 85 141 5.0 8.0 0.00 0.00 0.00 78 1017.6
20260901213520 85 152 4.0 8.0 0.00 0.00 0.00 78 1017.6
20260901213020 85 89 3.0 5.0 0.00 0.00 0.00 78 1017.6
20260901212514 85 130 4.0 6.0 0.00 0.00 0.00 78 1017.6
20260901212011 85 180 3.0 7.0 0.00 0.00 0.00 78 1017.8
20260901211506 85 226 1.0 7.0 0.00 0.00 0.00 78 1017.8
20260901211002 85 115 3.0 7.0 0.00 0.00 0.00 77 1017.6
20260901210457 85 172 5.0 8.0 0.00 0.00 0.00 77 1017.6
20260901205953 85 189 1.0 5.0 0.00 0.00 0.00 77 1017.7
20260901205449 85 230 3.0 6.0 0.00 0.00 0.00 78 1017.4
20260901204943 86 102 5.0 7.0 0.00 0.00 0.00 77 1017.7
20260901204440 86 121 2.0 6.0 0.00 0.00 0.00 78 1017.6
20260901203939 86 127 7.0 8.0 0.00 0.00 0.00 78 1017.5
20260901203434 86 194 4.0 8.0 0.00 0.00 0.00 78 1017.3
20260901202929 86 154 3.0 7.0 0.00 0.00 0.00 78 1017.6
20260901202423 86 212 5.0 6.0 0.00 0.00 0.00 78 1017.5
20260901201920 86 161 3.0 5.0 0.00 0.00 0.00 78 1017.7
20260901201420 86 155 2.0 9.0 0.00 0.00 0.00 78 1017.7
20260901200914 86 183 4.0 8.0 0.00 0.00 0.00 78 1017.4
20260901200409 86 230 2.0 6.0 0.00 0.00 0.00 78 1017.6
20260901195908 86 221 0.0 7.0 0.00 0.00 0.00 78 1017.6
20260901195408 86 191 4.0 7.0 0.00 0.00 0.00 78 1017.6
20260901194902 86 194 2.0 6.0 0.00 0.00 0.00 78 1017.7
20260901194356 86 154 4.0 7.0 0.00 0.00 0.00 78 1017.8
20260901193853 87 213 3.0 5.0 0.00 0.00 0.00 78 1017.6
20260901193352 87 188 4.0 6.0 0.00 0.00 0.00 78 1017.6
20260901192852 87 197 4.0 6.0 0.00 0.00 0.00 78 1017.7
20260901192348 87 183 0.0 8.0 0.00 0.00 0.00 78 1017.9
20260901191843 87 129 5.0 8.0 0.00 0.00 0.00 78 1017.8
20260901191339 87 166 3.0 8.0 0.00 0.00 0.00 78 1018.1
20260901190835 87 219 3.0 7.0 0.00 0.00 0.00 78 1017.9
20260901190334 87 151 7.0 10.0 0.00 0.00 0.00 78 1018.1
20260901185833 87 191 1.0 6.0 0.00 0.00 0.00 78 1018.2
20260901185332 87 209 4.0 6.0 0.00 0.00 0.00 78 1018.3
20260901184827 88 161 2.0 7.0 0.00 0.00 0.00 78 1018.2
20260901184323 88 184 3.0 7.0 0.00 0.00 0.00 77 1018.2
20260901183819 88 196 5.0 8.0 0.00 0.00 0.00 77 1018.1
20260901183318 88 119 4.0 7.0 0.00 0.00 0.00 77 1018.5
20260901182815 88 230 2.0 6.0 0.00 0.00 0.00 77 1018.5
20260901182314 88 209 6.0 11.0 0.00 0.00 0.00 77 1018.3
20260901181809 88 201 2.0 6.0 0.00 0.00 0.00 77 1018.4
20260901181303 88 207 4.0 9.0 0.00 0.00 0.00 77 1018.4
20260901180757 88 197 2.0 8.0 0.00 0.00 0.00 76 1018.4
20260901180256 89 81 2.0 6.0 0.00 0.00 0.00 76 1018.5
20260901175755 89 224 1.0 5.0 0.00 0.00 0.00 76 1018.4
20260901175250 89 145 5.0 6.0 0.00 0.00 0.00 76 1018.8
20260901174745 89 187 4.0 8.0 0.00 0.00 0.00 76 1018.7
20260901174241 89 218 2.0 7.0 0.00 0.00 0.00 76 1018.7
20260901173736 89 182 7.0 9.0 0.00 0.00 0.00 76 1018.6
20260901173231 89 189 1.0 5.0 0.00 0.00 0.00 76 1018.6
20260901172728 89 181 4.0 5.0 0.00 0.00 0.00 75 1018.8
20260901172226 89 129 5.0 6.0 0.00 0.00 0.00 75 1018.8